| time (UTC) | temp F | wind direction | speed MPH | gust MPH | rain 1hr in | rain 24hr in | rain mn in | humidity % | barometer mb |
| 20260831044617 | 69 | 103 | 3.0 | 7.0 | 0.00 | 0.01 | 0.01 | 63 | 1028.8 |
| 20260831043053 | 69 | 96 | 2.0 | 7.0 | 0.00 | 0.01 | 0.01 | 62 | 1028.8 |
| 20260831041603 | 69 | 98 | 2.0 | 6.0 | 0.00 | 0.01 | 0.01 | 63 | 1029.0 |
| 20260831040051 | 69 | 94 | 2.0 | 6.0 | 0.00 | 0.01 | 0.01 | 63 | 1029.1 |
| 20260831034553 | 69 | 94 | 2.0 | 4.0 | 0.00 | 0.01 | 0.01 | 65 | 1029.3 |
| 20260831033049 | 69 | 94 | 3.0 | 6.0 | 0.00 | 0.01 | 0.01 | 65 | 1029.4 |
| 20260831031554 | 70 | 86 | 1.0 | 6.0 | 0.00 | 0.01 | 0.01 | 67 | 1029.5 |
| 20260831030053 | 70 | 44 | 1.0 | 4.0 | 0.00 | 0.01 | 0.01 | 68 | 1029.6 |
| 20260831024608 | 69 | 42 | 2.0 | 4.0 | 0.00 | 0.01 | 0.01 | 70 | 1030.0 |
| 20260831023043 | 69 | 40 | 3.0 | 5.0 | 0.00 | 0.01 | 0.01 | 71 | 1030.1 |
| 20260831021544 | 71 | 29 | 1.0 | 4.0 | 0.00 | 0.01 | 0.01 | 69 | 1030.3 |
| 20260831014557 | 71 | 23 | 1.0 | 3.0 | 0.00 | 0.01 | 0.01 | 69 | 1030.9 |
| 20260831013036 | 70 | 32 | 2.0 | 4.0 | 0.00 | 0.01 | 0.01 | 70 | 1031.1 |
| 20260831011537 | 69 | 65 | 2.0 | 4.0 | 0.00 | 0.01 | 0.01 | 71 | 1031.1 |
| 20260831010042 | 68 | 79 | 2.0 | 4.0 | 0.00 | 0.01 | 0.01 | 73 | 1031.4 |
| 20260831004526 | 67 | 96 | 2.0 | 4.0 | 0.00 | 0.01 | 0.01 | 76 | 1031.5 |
| 20260831003020 | 65 | 98 | 1.0 | 6.0 | 0.00 | 0.01 | 0.01 | 82 | 1031.6 |
| 20260831001527 | 64 | 102 | 2.0 | 4.0 | 0.00 | 0.01 | 0.01 | 86 | 1031.6 |
| 20260831000016 | 62 | 103 | 2.0 | 4.0 | 0.00 | 0.01 | 0.01 | 91 | 1031.5 |
| 20260830234521 | 61 | 104 | 0.0 | 4.0 | 0.00 | 0.01 | 0.01 | 94 | 1031.5 |
| 20260830233006 | 60 | 104 | 1.0 | 4.0 | 0.00 | 0.01 | 0.01 | 95 | 1031.4 |
| 20260830231503 | 59 | 107 | 0.0 | 0.0 | 0.00 | 0.01 | 0.01 | 96 | 1031.3 |
| 20260830230103 | 58 | 107 | 0.0 | 2.0 | 0.00 | 0.01 | 0.01 | 97 | 1031.5 |
| 20260830224558 | 58 | 107 | 0.0 | 0.0 | 0.00 | 0.01 | 0.01 | 97 | 1031.3 |
| 20260830223058 | 57 | 107 | 0.0 | 0.0 | 0.00 | 0.01 | 0.01 | 97 | 1031.3 |
| 20260830221553 | 57 | 107 | 0.0 | 0.0 | 0.00 | 0.01 | 0.01 | 97 | 1031.2 |
| 20260830220050 | 55 | 107 | 0.0 | 0.0 | 0.00 | 0.01 | 0.01 | 97 | 1031.2 |
| 20260830214553 | 55 | 107 | 0.0 | 0.0 | 0.00 | 0.01 | 0.01 | 97 | 1031.1 |
| 20260830213044 | 53 | 107 | 0.0 | 0.0 | 0.00 | 0.01 | 0.01 | 97 | 1031.1 |
| 20260830211544 | 52 | 107 | 0.0 | 0.0 | 0.00 | 0.01 | 0.01 | 97 | 1031.0 |
| 20260830210042 | 52 | 107 | 0.0 | 0.0 | 0.00 | 0.01 | 0.01 | 96 | 1030.9 |
| 20260830204540 | 52 | 107 | 0.0 | 0.0 | 0.00 | 0.01 | 0.01 | 97 | 1030.6 |
| 20260830203038 | 51 | 107 | 0.0 | 0.0 | 0.00 | 0.01 | 0.01 | 97 | 1030.4 |
| 20260830201603 | 51 | 107 | 0.0 | 0.0 | 0.00 | 0.01 | 0.01 | 97 | 1030.1 |
| 20260830200036 | 51 | 107 | 0.0 | 0.0 | 0.00 | 0.01 | 0.01 | 96 | 1030.0 |
| 20260830194535 | 51 | 107 | 0.0 | 0.0 | 0.00 | 0.01 | 0.01 | 96 | 1030.0 |
| 20260830193040 | 50 | 107 | 0.0 | 0.0 | 0.00 | 0.01 | 0.01 | 96 | 1030.0 |
| 20260830191535 | 51 | 107 | 0.0 | 0.0 | 0.00 | 0.01 | 0.01 | 96 | 1029.9 |
| 20260830190034 | 51 | 107 | 0.0 | 0.0 | 0.00 | 0.02 | 0.01 | 96 | 1030.0 |
| 20260830184533 | 51 | 107 | 0.0 | 0.0 | 0.00 | 0.02 | 0.01 | 96 | 1029.9 |
| 20260830183028 | 51 | 107 | 0.0 | 0.0 | 0.00 | 0.02 | 0.01 | 96 | 1030.0 |
| 20260830181526 | 51 | 107 | 0.0 | 0.0 | 0.00 | 0.02 | 0.01 | 96 | 1029.9 |
| 20260830180024 | 51 | 107 | 0.0 | 0.0 | 0.00 | 0.02 | 0.01 | 96 | 1030.0 |
| 20260830174526 | 52 | 107 | 0.0 | 0.0 | 0.00 | 0.02 | 0.01 | 96 | 1030.1 |
| 20260830173029 | 52 | 107 | 0.0 | 0.0 | 0.00 | 0.02 | 0.01 | 96 | 1030.0 |
| 20260830171521 | 52 | 107 | 0.0 | 0.0 | 0.01 | 0.02 | 0.01 | 96 | 1030.0 |
| 20260830170021 | 51 | 107 | 0.0 | 0.0 | 0.01 | 0.02 | 0.01 | 96 | 1030.1 |
| 20260830164518 | 52 | 107 | 0.0 | 0.0 | 0.01 | 0.02 | 0.01 | 95 | 1030.1 |
| 20260830163020 | 52 | 107 | 0.0 | 0.0 | 0.01 | 0.02 | 0.01 | 95 | 1030.2 |
| 20260830161514 | 52 | 107 | 0.0 | 0.0 | 0.00 | 0.01 | 0.00 | 95 | 1030.1 |
| 20260830160015 | 52 | 107 | 0.0 | 0.0 | 0.00 | 0.01 | 0.00 | 96 | 1030.3 |
| 20260830154511 | 53 | 107 | 0.0 | 0.0 | 0.00 | 0.01 | 0.00 | 95 | 1030.3 |
| 20260830153026 | 53 | 107 | 0.0 | 0.0 | 0.00 | 0.01 | 0.00 | 95 | 1030.4 |
| 20260830151511 | 53 | 107 | 0.0 | 0.0 | 0.00 | 0.01 | 0.00 | 95 | 1030.6 |
| 20260830150006 | 53 | 107 | 0.0 | 0.0 | 0.00 | 0.01 | 0.00 | 95 | 1030.6 |
| 20260830144506 | 53 | 107 | 0.0 | 0.0 | 0.00 | 0.01 | 0.00 | 95 | 1030.6 |
| 20260830143002 | 54 | 107 | 0.0 | 0.0 | 0.00 | 0.01 | 0.00 | 95 | 1030.7 |
| 20260830141600 | 54 | 107 | 0.0 | 0.0 | 0.00 | 0.01 | 0.00 | 95 | 1030.7 |
| 20260830140057 | 54 | 107 | 0.0 | 0.0 | 0.00 | 0.01 | 0.01 | 95 | 1030.5 |
| 20260830134559 | 54 | 107 | 0.0 | 0.0 | 0.00 | 0.01 | 0.01 | 95 | 1030.4 |
| 20260830133056 | 54 | 107 | 0.0 | 0.0 | 0.00 | 0.01 | 0.01 | 94 | 1030.3 |
| 20260830131603 | 55 | 107 | 0.0 | 0.0 | 0.00 | 0.01 | 0.01 | 95 | 1030.2 |
| 20260830130057 | 55 | 107 | 0.0 | 0.0 | 0.00 | 0.01 | 0.01 | 95 | 1030.3 |
| 20260830124600 | 54 | 107 | 0.0 | 0.0 | 0.00 | 0.01 | 0.01 | 94 | 1030.5 |
| 20260830123102 | 55 | 107 | 0.0 | 0.0 | 0.00 | 0.01 | 0.01 | 95 | 1030.6 |
| 20260830121554 | 54 | 107 | 0.0 | 2.0 | 0.00 | 0.01 | 0.01 | 94 | 1030.7 |
| 20260830120055 | 55 | 107 | 0.0 | 1.0 | 0.00 | 0.01 | 0.01 | 94 | 1030.6 |
| 20260830114558 | 55 | 107 | 0.0 | 0.0 | 0.00 | 0.01 | 0.01 | 94 | 1030.4 |
| 20260830113052 | 55 | 107 | 0.0 | 0.0 | 0.00 | 0.01 | 0.01 | 94 | 1030.4 |
| 20260830111551 | 55 | 107 | 0.0 | 0.0 | 0.00 | 0.01 | 0.01 | 94 | 1030.3 |
| 20260830110055 | 55 | 107 | 0.0 | 1.0 | 0.00 | 0.01 | 0.01 | 93 | 1030.3 |
| 20260830104550 | 55 | 107 | 0.0 | 0.0 | 0.00 | 0.01 | 0.01 | 92 | 1030.3 |
| 20260830103049 | 56 | 107 | 0.0 | 0.0 | 0.00 | 0.01 | 0.01 | 92 | 1030.2 |
| 20260830101548 | 56 | 107 | 0.0 | 0.0 | 0.00 | 0.01 | 0.01 | 92 | 1030.2 |
| 20260830100048 | 56 | 107 | 0.0 | 0.0 | 0.00 | 0.01 | 0.01 | 92 | 1030.2 |
| 20260830094606 | 57 | 107 | 0.0 | 0.0 | 0.00 | 0.01 | 0.01 | 91 | 1030.0 |
| 20260830093045 | 57 | 107 | 0.0 | 0.0 | 0.00 | 0.01 | 0.01 | 90 | 1029.9 |
| 20260830091545 | 58 | 107 | 0.0 | 0.0 | 0.00 | 0.01 | 0.01 | 89 | 1029.9 |
| 20260830090048 | 58 | 107 | 0.0 | 0.0 | 0.00 | 0.01 | 0.01 | 89 | 1029.7 |
| 20260830084543 | 59 | 107 | 0.0 | 1.0 | 0.00 | 0.01 | 0.01 | 87 | 1029.6 |
| 20260830083042 | 59 | 107 | 0.0 | 0.0 | 0.00 | 0.01 | 0.01 | 85 | 1029.4 |
| 20260830081541 | 60 | 107 | 0.0 | 0.0 | 0.00 | 0.01 | 0.01 | 83 | 1029.2 |
| 20260830080047 | 61 | 107 | 0.0 | 0.0 | 0.00 | 0.01 | 0.01 | 81 | 1029.2 |
| 20260830074540 | 62 | 107 | 0.0 | 3.0 | 0.00 | 0.01 | 0.01 | 79 | 1029.3 |
| 20260830073040 | 63 | 107 | 1.0 | 3.0 | 0.00 | 0.01 | 0.01 | 78 | 1029.1 |
| 20260830071541 | 64 | 107 | 2.0 | 4.0 | 0.00 | 0.01 | 0.01 | 78 | 1028.9 |
| 20260830070042 | 64 | 107 | 1.0 | 3.0 | 0.00 | 0.01 | 0.01 | 77 | 1028.9 |
| 20260830064545 | 64 | 107 | 2.0 | 6.0 | 0.00 | 0.01 | 0.01 | 75 | 1028.9 |
| 20260830063038 | 65 | 108 | 3.0 | 6.0 | 0.00 | 0.01 | 0.01 | 74 | 1028.7 |
| 20260830061536 | 65 | 109 | 3.0 | 9.0 | 0.00 | 0.01 | 0.01 | 74 | 1028.5 |
| 20260830060036 | 66 | 105 | 6.0 | 8.0 | 0.00 | 0.01 | 0.01 | 73 | 1028.5 |
| 20260830054544 | 66 | 104 | 3.0 | 7.0 | 0.00 | 0.01 | 0.01 | 73 | 1028.4 |
| 20260830053034 | 67 | 103 | 4.0 | 8.0 | 0.00 | 0.01 | 0.01 | 72 | 1028.6 |
| 20260830051533 | 67 | 103 | 5.0 | 8.0 | 0.00 | 0.01 | 0.01 | 72 | 1028.8 |
| 20260830050033 | 67 | 105 | 5.0 | 9.0 | 0.00 | 0.01 | 0.01 | 72 | 1028.7 |